Time,TemperatureF,DewpointF,PressureIn,WindDirection,WindDirectionDegrees,WindSpeedMPH,WindSpeedGustMPH,Humidity,HourlyPrecipIn,Conditions,Clouds,dailyrainin,SoftwareType,DateUTC
2013-04-20 00:02:00,22.0,16.0,-100.00,WNW,295,8.0,-999.0,78,-99.99,,,-99.99,,2013-04-20 05:02:00,
2013-04-20 00:12:00,21.0,16.0,-100.00,WNW,286,8.0,-999.0,79,-99.99,,,-99.99,,2013-04-20 05:12:00,
2013-04-20 00:22:00,21.0,15.0,-100.00,WNW,303,10.0,-999.0,79,-99.99,,,-99.99,,2013-04-20 05:22:00,
2013-04-20 00:32:00,20.0,15.0,-100.00,WNW,298,9.0,-999.0,80,-99.99,,,-99.99,,2013-04-20 05:32:00,
2013-04-20 00:43:00,21.0,15.0,-100.00,WNW,286,8.0,-999.0,80,-99.99,,,-99.99,,2013-04-20 05:43:00,
2013-04-20 00:51:00,20.0,16.0,-100.00,WNW,290,9.0,-999.0,81,-99.99,,,-99.99,,2013-04-20 05:51:00,
2013-04-20 01:02:00,20.0,16.0,-100.00,West,277,10.0,-999.0,83,-99.99,,,-99.99,,2013-04-20 06:02:00,
2013-04-20 01:12:00,20.0,16.0,-100.00,West,279,10.0,-999.0,83,-99.99,,,-99.99,,2013-04-20 06:12:00,
2013-04-20 01:21:00,20.0,16.0,-100.00,WNW,287,8.0,-999.0,84,-99.99,,,-99.99,,2013-04-20 06:21:00,
2013-04-20 01:32:00,20.0,16.0,-100.00,West,267,7.0,-999.0,85,-99.99,,,-99.99,,2013-04-20 06:32:00,
2013-04-20 01:42:00,20.0,16.0,-100.00,West,275,10.0,-999.0,86,-99.99,,,-99.99,,2013-04-20 06:42:00,
2013-04-20 01:52:00,20.0,17.0,-100.00,West,277,9.0,-999.0,86,-99.99,,,-99.99,,2013-04-20 06:52:00,
2013-04-20 02:01:00,20.0,16.0,-100.00,West,277,9.0,-999.0,87,-99.99,,,-99.99,,2013-04-20 07:01:00,
2013-04-20 02:11:00,20.0,16.0,-100.00,WNW,288,9.0,-999.0,86,-99.99,,,-99.99,,2013-04-20 07:11:00,
2013-04-20 02:21:00,19.0,16.0,-100.00,West,278,10.0,-999.0,87,-99.99,,,-99.99,,2013-04-20 07:21:00,
2013-04-20 02:32:00,19.0,16.0,-100.00,WNW,288,10.0,-999.0,87,-99.99,,,-99.99,,2013-04-20 07:32:00,
2013-04-20 02:42:00,19.0,16.0,-100.00,West,278,10.0,-999.0,87,-99.99,,,-99.99,,2013-04-20 07:42:00,
2013-04-20 02:52:00,18.0,15.0,-100.00,West,278,12.0,-999.0,87,-99.99,,,-99.99,,2013-04-20 07:52:00,
2013-04-20 03:02:00,18.0,15.0,-100.00,West,278,9.0,-999.0,87,-99.99,,,-99.99,,2013-04-20 08:02:00,
2013-04-20 03:11:00,18.0,15.0,-100.00,WNW,285,8.0,-999.0,87,-99.99,,,-99.99,,2013-04-20 08:11:00,
2013-04-20 03:21:00,18.0,15.0,-100.00,West,276,9.0,-999.0,88,-99.99,,,-99.99,,2013-04-20 08:21:00,
2013-04-20 03:32:00,18.0,15.0,-100.00,WNW,287,10.0,-999.0,87,-99.99,,,-99.99,,2013-04-20 08:32:00,
2013-04-20 03:42:00,18.0,15.0,-100.00,WNW,287,10.0,-999.0,87,-99.99,,,-99.99,,2013-04-20 08:42:00,
2013-04-20 03:52:00,18.0,15.0,-100.00,West,281,11.0,-999.0,87,-99.99,,,-99.99,,2013-04-20 08:52:00,
2013-04-20 04:01:00,17.0,14.0,-100.00,WNW,289,12.0,-999.0,88,-99.99,,,-99.99,,2013-04-20 09:01:00,
2013-04-20 04:12:00,17.0,14.0,-100.00,WNW,287,11.0,-999.0,88,-99.99,,,-99.99,,2013-04-20 09:12:00,
2013-04-20 04:21:00,17.0,14.0,-100.00,WNW,289,11.0,-999.0,87,-99.99,,,-99.99,,2013-04-20 09:21:00,
2013-04-20 04:33:00,17.0,14.0,-100.00,WNW,291,11.0,-999.0,88,-99.99,,,-99.99,,2013-04-20 09:33:00,
2013-04-20 04:43:00,17.0,14.0,-100.00,WNW,285,9.0,-999.0,88,-99.99,,,-99.99,,2013-04-20 09:43:00,
2013-04-20 04:53:00,17.0,14.0,-100.00,WNW,290,12.0,-999.0,87,-99.99,,,-99.99,,2013-04-20 09:53:00,
2013-04-20 05:03:00,16.0,13.0,-100.00,WNW,293,8.0,-999.0,87,-99.99,,,-99.99,,2013-04-20 10:03:00,
2013-04-20 05:13:00,16.0,13.0,-100.00,WNW,301,11.0,-999.0,88,-99.99,,,-99.99,,2013-04-20 10:13:00,
2013-04-20 05:23:00,16.0,13.0,-100.00,WNW,286,10.0,-999.0,88,-99.99,,,-99.99,,2013-04-20 10:23:00,
2013-04-20 05:33:00,16.0,13.0,-100.00,NW,315,7.0,-999.0,87,-99.99,,,-99.99,,2013-04-20 10:33:00,
2013-04-20 05:42:00,16.0,13.0,-100.00,WNW,288,8.0,-999.0,86,-99.99,,,-99.99,,2013-04-20 10:42:00,
2013-04-20 05:52:00,15.0,12.0,-100.00,NW,317,9.0,-999.0,87,-99.99,,,-99.99,,2013-04-20 10:52:00,
2013-04-20 06:02:00,16.0,13.0,-100.00,WNW,285,6.0,-999.0,86,-99.99,,,-99.99,,2013-04-20 11:02:00,
2013-04-20 06:12:00,16.0,13.0,-100.00,WNW,290,6.0,-999.0,87,-99.99,,,-99.99,,2013-04-20 11:12:00,
2013-04-20 06:23:00,16.0,12.0,-100.00,West,277,6.0,-999.0,86,-99.99,,,-99.99,,2013-04-20 11:23:00,
2013-04-20 06:32:00,16.0,13.0,-100.00,WNW,287,5.0,-999.0,86,-99.99,,,-99.99,,2013-04-20 11:32:00,
2013-04-20 06:42:00,15.0,12.0,-100.00,WNW,282,6.0,-999.0,87,-99.99,,,-99.99,,2013-04-20 11:42:00,
2013-04-20 06:52:00,15.0,12.0,-100.00,WNW,300,7.0,-999.0,88,-99.99,,,-99.99,,2013-04-20 11:52:00,
2013-04-20 07:02:00,15.0,12.0,-100.00,NW,311,6.0,-999.0,87,-99.99,,,-99.99,,2013-04-20 12:02:00,
2013-04-20 07:11:00,15.0,12.0,-100.00,WNW,300,8.0,-999.0,88,-99.99,,,-99.99,,2013-04-20 12:11:00,
2013-04-20 07:22:00,15.0,12.0,-100.00,WNW,289,7.0,-999.0,87,-99.99,,,-99.99,,2013-04-20 12:22:00,
2013-04-20 07:32:00,16.0,12.0,-100.00,WNW,297,7.0,-999.0,86,-99.99,,,-99.99,,2013-04-20 12:32:00,
2013-04-20 07:42:00,15.0,12.0,-100.00,West,281,5.0,-999.0,86,-99.99,,,-99.99,,2013-04-20 12:42:00,
2013-04-20 07:52:00,13.0,10.0,-100.00,WSW,250,6.0,-999.0,85,-99.99,,,-99.99,,2013-04-20 12:52:00,
2013-04-20 08:02:00,14.0,12.0,-100.00,West,280,5.0,-999.0,89,-99.99,,,-99.99,,2013-04-20 13:02:00,
2013-04-20 08:11:00,16.0,12.0,-100.00,West,276,4.0,-999.0,86,-99.99,,,-99.99,,2013-04-20 13:11:00,
2013-04-20 08:21:00,16.0,12.0,-100.00,WNW,286,7.0,-999.0,85,-99.99,,,-99.99,,2013-04-20 13:21:00,
2013-04-20 08:32:00,17.0,13.0,-100.00,West,270,6.0,-999.0,84,-99.99,,,-99.99,,2013-04-20 13:32:00,
2013-04-20 08:42:00,18.0,14.0,-100.00,West,276,5.0,-999.0,83,-99.99,,,-99.99,,2013-04-20 13:42:00,
2013-04-20 08:52:00,18.0,14.0,-100.00,WNW,287,6.0,-999.0,82,-99.99,,,-99.99,,2013-04-20 13:52:00,
2013-04-20 09:02:00,18.0,14.0,-100.00,West,271,6.0,-999.0,82,-99.99,,,-99.99,,2013-04-20 14:02:00,
2013-04-20 09:11:00,19.0,14.0,-100.00,WNW,286,4.0,-999.0,82,-99.99,,,-99.99,,2013-04-20 14:11:00,
2013-04-20 09:21:00,20.0,15.0,-100.00,WNW,286,5.0,-999.0,81,-99.99,,,-99.99,,2013-04-20 14:21:00,
2013-04-20 09:32:00,20.0,15.0,-100.00,West,264,4.0,-999.0,80,-99.99,,,-99.99,,2013-04-20 14:32:00,
2013-04-20 09:42:00,21.0,16.0,-100.00,WNW,284,5.0,-999.0,79,-99.99,,,-99.99,,2013-04-20 14:42:00,
2013-04-20 09:51:00,22.0,16.0,-100.00,NNW,327,4.0,-999.0,77,-99.99,,,-99.99,,2013-04-20 14:51:00,
2013-04-20 10:01:00,22.0,16.0,-100.00,NW,322,6.0,-999.0,76,-99.99,,,-99.99,,2013-04-20 15:01:00,
2013-04-20 10:11:00,22.0,16.0,-100.00,NNW,331,5.0,-999.0,76,-99.99,,,-99.99,,2013-04-20 15:11:00,
2013-04-20 10:21:00,23.0,16.0,-100.00,NNW,345,3.0,-999.0,75,-99.99,,,-99.99,,2013-04-20 15:21:00,
2013-04-20 10:33:00,23.0,17.0,-100.00,North,4,5.0,-999.0,76,-99.99,,,-99.99,,2013-04-20 15:33:00,
2013-04-20 10:43:00,24.0,17.0,-100.00,North,9,4.0,-999.0,73,-99.99,,,-99.99,,2013-04-20 15:43:00,
2013-04-20 10:53:00,26.0,18.0,-100.00,ENE,67,4.0,-999.0,72,-99.99,,,-99.99,,2013-04-20 15:53:00,
2013-04-20 11:03:00,25.0,18.0,-100.00,NE,55,6.0,-999.0,73,-99.99,,,-99.99,,2013-04-20 16:03:00,
2013-04-20 11:12:00,25.0,19.0,-100.00,ENE,62,5.0,-999.0,75,-99.99,,,-99.99,,2013-04-20 16:12:00,
2013-04-20 11:23:00,25.0,18.0,-100.00,ENE,67,5.0,-999.0,75,-99.99,,,-99.99,,2013-04-20 16:23:00,
2013-04-20 11:32:00,26.0,19.0,-100.00,ENE,57,5.0,-999.0,77,-99.99,,,-99.99,,2013-04-20 16:32:00,
2013-04-20 11:42:00,26.0,19.0,-100.00,NE,40,7.0,-999.0,76,-99.99,,,-99.99,,2013-04-20 16:42:00,
2013-04-20 11:52:00,26.0,19.0,-100.00,ENE,57,7.0,-999.0,75,-99.99,,,-99.99,,2013-04-20 16:52:00,
2013-04-20 12:02:00,28.0,20.0,-100.00,SE,125,4.0,-999.0,71,-99.99,,,-99.99,,2013-04-20 17:02:00,
2013-04-20 12:12:00,29.0,19.0,-100.00,ESE,120,5.0,-999.0,66,-99.99,,,-99.99,,2013-04-20 17:12:00,
2013-04-20 12:23:00,30.0,20.0,-100.00,SE,127,3.0,-999.0,65,-99.99,,,-99.99,,2013-04-20 17:23:00,
2013-04-20 12:33:00,30.0,20.0,-100.00,ESE,122,4.0,-999.0,64,-99.99,,,-99.99,,2013-04-20 17:33:00,
2013-04-20 12:42:00,30.0,20.0,-100.00,ESE,114,5.0,-999.0,65,-99.99,,,-99.99,,2013-04-20 17:42:00,
2013-04-20 12:52:00,29.0,20.0,-100.00,NE,55,6.0,-999.0,69,-99.99,,,-99.99,,2013-04-20 17:52:00,
2013-04-20 13:02:00,30.0,20.0,-100.00,East,99,4.0,-999.0,65,-99.99,,,-99.99,,2013-04-20 18:02:00,
2013-04-20 13:12:00,32.0,21.0,-100.00,SE,130,5.0,-999.0,65,-99.99,,,-99.99,,2013-04-20 18:12:00,
2013-04-20 13:22:00,32.0,20.0,-100.00,ESE,108,5.0,-999.0,60,-99.99,,,-99.99,,2013-04-20 18:22:00,
2013-04-20 13:32:00,33.0,20.0,-100.00,ESE,122,6.0,-999.0,60,-99.99,,,-99.99,,2013-04-20 18:32:00,
2013-04-20 13:42:00,34.0,18.0,-100.00,ESE,114,3.0,-999.0,52,-99.99,,,-99.99,,2013-04-20 18:42:00,
2013-04-20 13:52:00,33.0,14.0,-100.00,SSE,157,6.0,-999.0,45,-99.99,,,-99.99,,2013-04-20 18:52:00,
2013-04-20 14:02:00,32.0,15.0,-100.00,South,173,6.0,-999.0,49,-99.99,,,-99.99,,2013-04-20 19:02:00,
2013-04-20 14:11:00,33.0,18.0,-100.00,South,179,11.0,-999.0,53,-99.99,,,-99.99,,2013-04-20 19:11:00,
2013-04-20 14:21:00,32.0,18.0,-100.00,South,179,12.0,-999.0,56,-99.99,,,-99.99,,2013-04-20 19:21:00,
2013-04-20 14:32:00,32.0,18.0,-100.00,South,182,11.0,-999.0,57,-99.99,,,-99.99,,2013-04-20 19:32:00,
2013-04-20 14:42:00,31.0,18.0,-100.00,South,179,13.0,-999.0,57,-99.99,,,-99.99,,2013-04-20 19:42:00,
2013-04-20 14:52:00,33.0,16.0,-100.00,SSE,161,16.0,-999.0,49,-99.99,,,-99.99,,2013-04-20 19:52:00,
2013-04-20 15:02:00,33.0,18.0,-100.00,SSE,156,14.0,-999.0,53,-99.99,,,-99.99,,2013-04-20 20:02:00,
2013-04-20 15:12:00,33.0,17.0,-100.00,SE,146,13.0,-999.0,51,-99.99,,,-99.99,,2013-04-20 20:12:00,
2013-04-20 15:22:00,33.0,17.0,-100.00,South,173,13.0,-999.0,51,-99.99,,,-99.99,,2013-04-20 20:22:00,
2013-04-20 15:32:00,33.0,18.0,-100.00,South,179,17.0,-999.0,53,-99.99,,,-99.99,,2013-04-20 20:32:00,
2013-04-20 15:42:00,33.0,16.0,-100.00,SSE,164,13.0,-999.0,49,-99.99,,,-99.99,,2013-04-20 20:42:00,
2013-04-20 15:52:00,33.0,17.0,-100.00,SSE,155,14.0,-999.0,52,-99.99,,,-99.99,,2013-04-20 20:52:00,
2013-04-20 16:01:00,33.0,18.0,-100.00,SSE,163,16.0,-999.0,52,-99.99,,,-99.99,,2013-04-20 21:01:00,
2013-04-20 16:12:00,33.0,18.0,-100.00,South,177,16.0,-999.0,55,-99.99,,,-99.99,,2013-04-20 21:12:00,
2013-04-20 16:22:00,34.0,19.0,-100.00,SSE,150,15.0,-999.0,54,-99.99,,,-99.99,,2013-04-20 21:22:00,
2013-04-20 16:33:00,34.0,19.0,-100.00,SSE,158,17.0,-999.0,55,-99.99,,,-99.99,,2013-04-20 21:33:00,
2013-04-20 16:43:00,34.0,21.0,-100.00,SSE,164,19.0,-999.0,58,-99.99,,,-99.99,,2013-04-20 21:43:00,
2013-04-20 16:52:00,34.0,20.0,-100.00,SSE,152,20.0,-999.0,57,-99.99,,,-99.99,,2013-04-20 21:52:00,
2013-04-20 17:02:00,34.0,20.0,-100.00,SSE,158,15.0,-999.0,56,-99.99,,,-99.99,,2013-04-20 22:02:00,
2013-04-20 17:12:00,35.0,20.0,-100.00,SSE,161,18.0,-999.0,54,-99.99,,,-99.99,,2013-04-20 22:12:00,
2013-04-20 17:22:00,35.0,20.0,-100.00,SSE,152,18.0,-999.0,54,-99.99,,,-99.99,,2013-04-20 22:22:00,
2013-04-20 17:32:00,34.0,19.0,-100.00,SSE,161,18.0,-999.0,52,-99.99,,,-99.99,,2013-04-20 22:32:00,
2013-04-20 17:42:00,34.0,21.0,-100.00,South,170,16.0,-999.0,58,-99.99,,,-99.99,,2013-04-20 22:42:00,
2013-04-20 17:52:00,34.0,18.0,-100.00,SSE,157,19.0,-999.0,53,-99.99,,,-99.99,,2013-04-20 22:52:00,
2013-04-20 18:02:00,34.0,18.0,-100.00,SSE,157,19.0,-999.0,53,-99.99,,,-99.99,,2013-04-20 23:02:00,
2013-04-20 18:11:00,34.0,20.0,-100.00,SSE,147,16.0,-999.0,55,-99.99,,,-99.99,,2013-04-20 23:11:00,
2013-04-20 18:22:00,34.0,20.0,-100.00,SSE,147,20.0,-999.0,56,-99.99,,,-99.99,,2013-04-20 23:22:00,
2013-04-20 18:32:00,33.0,20.0,-100.00,SSE,162,17.0,-999.0,57,-99.99,,,-99.99,,2013-04-20 23:32:00,
2013-04-20 18:42:00,32.0,20.0,-100.00,SSE,158,13.0,-999.0,62,-99.99,,,-99.99,,2013-04-20 23:42:00,
2013-04-20 18:52:00,32.0,20.0,-100.00,SSE,161,12.0,-999.0,61,-99.99,,,-99.99,,2013-04-20 23:52:00,
2013-04-20 19:01:00,32.0,23.0,-100.00,SSE,166,9.0,-999.0,67,-99.99,,,-99.99,,2013-04-21 00:01:00,
2013-04-20 19:12:00,32.0,22.0,-100.00,SSE,148,15.0,-999.0,66,-99.99,,,-99.99,,2013-04-21 00:12:00,
2013-04-20 19:22:00,32.0,22.0,-100.00,SSE,152,16.0,-999.0,65,-99.99,,,-99.99,,2013-04-21 00:22:00,
2013-04-20 19:32:00,32.0,21.0,-100.00,SSE,156,15.0,-999.0,64,-99.99,,,-99.99,,2013-04-21 00:32:00,
2013-04-20 19:42:00,32.0,21.0,-100.00,SSE,156,15.0,-999.0,64,-99.99,,,-99.99,,2013-04-21 00:42:00,
2013-04-20 19:52:00,31.0,22.0,-100.00,SSE,152,15.0,-999.0,69,-99.99,,,-99.99,,2013-04-21 00:52:00,
2013-04-20 20:01:00,31.0,22.0,-100.00,SE,139,16.0,-999.0,68,-99.99,,,-99.99,,2013-04-21 01:01:00,
2013-04-20 20:12:00,31.0,22.0,-100.00,SE,144,14.0,-999.0,69,-99.99,,,-99.99,,2013-04-21 01:12:00,
2013-04-20 20:21:00,31.0,22.0,-100.00,SE,142,14.0,-999.0,71,-99.99,,,-99.99,,2013-04-21 01:21:00,
2013-04-20 20:32:00,31.0,23.0,-100.00,SE,137,13.0,-999.0,72,-99.99,,,-99.99,,2013-04-21 01:32:00,
2013-04-20 20:42:00,30.0,24.0,-100.00,SE,140,15.0,-999.0,76,-99.99,,,-99.99,,2013-04-21 01:42:00,
2013-04-20 20:52:00,30.0,23.0,-100.00,SE,140,17.0,-999.0,75,-99.99,,,-99.99,,2013-04-21 01:52:00,
2013-04-20 21:02:00,30.0,23.0,-100.00,SE,140,21.0,-999.0,74,-99.99,,,-99.99,,2013-04-21 02:02:00,
2013-04-20 21:11:00,30.0,23.0,-100.00,SE,143,19.0,-999.0,75,-99.99,,,-99.99,,2013-04-21 02:11:00,
2013-04-20 21:21:00,30.0,23.0,-100.00,SE,144,22.0,-999.0,74,-99.99,,,-99.99,,2013-04-21 02:21:00,
2013-04-20 21:32:00,30.0,23.0,-100.00,SE,138,17.0,-999.0,77,-99.99,,,-99.99,,2013-04-21 02:32:00,
2013-04-20 21:42:00,30.0,24.0,-100.00,SE,136,18.0,-999.0,78,-99.99,,,-99.99,,2013-04-21 02:42:00,
2013-04-20 21:52:00,30.0,23.0,-100.00,SE,141,20.0,-999.0,76,-99.99,,,-99.99,,2013-04-21 02:52:00,
2013-04-20 22:01:00,30.0,23.0,-100.00,SE,134,19.0,-999.0,76,-99.99,,,-99.99,,2013-04-21 03:01:00,
2013-04-20 22:11:00,30.0,23.0,-100.00,SE,140,18.0,-999.0,77,-99.99,,,-99.99,,2013-04-21 03:11:00,
2013-04-20 22:21:00,30.0,23.0,-100.00,SE,142,22.0,-999.0,76,-99.99,,,-99.99,,2013-04-21 03:21:00,
2013-04-20 22:33:00,29.0,23.0,-100.00,SE,143,23.0,-999.0,78,-99.99,,,-99.99,,2013-04-21 03:33:00,
2013-04-20 22:42:00,29.0,24.0,-100.00,SE,146,22.0,-999.0,79,-99.99,,,-99.99,,2013-04-21 03:42:00,
2013-04-20 22:52:00,29.0,25.0,-100.00,SSE,149,22.0,-999.0,82,-99.99,,,-99.99,,2013-04-21 03:52:00,
2013-04-20 23:02:00,29.0,25.0,-100.00,SSE,148,23.0,-999.0,85,-99.99,,,-99.99,,2013-04-21 04:02:00,
2013-04-20 23:12:00,29.0,26.0,-100.00,SSE,152,19.0,-999.0,88,-99.99,,,-99.99,,2013-04-21 04:12:00,
2013-04-20 23:23:00,29.0,27.0,-100.00,SE,145,20.0,-999.0,91,-99.99,,,-99.99,,2013-04-21 04:23:00,
2013-04-20 23:33:00,29.0,27.0,-100.00,SE,141,17.0,-999.0,94,-99.99,,,-99.99,,2013-04-21 04:33:00,
2013-04-20 23:42:00,29.0,28.0,-100.00,SE,145,17.0,-999.0,96,-99.99,,,-99.99,,2013-04-21 04:42:00,
2013-04-20 23:52:00,29.0,28.0,-100.00,SE,145,21.0,-999.0,97,-99.99,,,-99.99,,2013-04-21 04:52:00,